Simultaneous Nadir Overpasses (SNOs) Predictions

Prediction of SNOs between AQUA and METOP-B Satellite Orbit:

Table of predicted SNOs for the next 14.0 days since TLE Epoch: 7/28/2017
Index Date (AQUA) Time (AQUA) Lat,Lon (AQUA) SZA (AQUA ) Date (METOP-B) Time (METOP-B) Lat,Lon (METOP-B) SZA (METOP-B ) Distance(km) Time Diff (sec)
1 07/31/2017 00:22:01 -73.80, -11.26 124.40 07/31/2017 00:21:41 -73.82, -11.26 124.38 2.29 20
2 07/31/2017 01:11:29 73.86, 156.25 55.67 07/31/2017 01:12:20 73.86, 156.17 55.67 2.76 51
3 08/02/2017 19:06:39 73.21,-111.21 55.67 08/02/2017 19:05:32 73.19,-113.61 55.77 76.98 67
4 08/02/2017 19:56:17 -73.83, 55.12 123.66 08/02/2017 19:56:01 -73.84, 55.19 123.65 2.61 16
5 08/02/2017 20:45:45 73.88,-137.37 56.41 08/02/2017 20:46:40 73.87,-137.40 56.39 1.95 55
6 08/05/2017 14:40:57 73.40, -45.17 56.62 08/05/2017 14:39:48 73.35, -46.84 56.66 53.49 69
7 08/05/2017 15:30:31 -73.80, 121.60 122.94 08/05/2017 15:30:21 -73.80, 121.52 122.93 2.63 10
8 08/05/2017 16:19:59 73.87, -70.89 57.14 08/05/2017 16:20:59 73.88, -70.97 57.15 2.70 60
9 08/08/2017 10:15:16 73.59, 20.85 57.61 08/08/2017 10:14:05 73.51, 19.92 57.58 30.70 71
10 08/08/2017 11:04:47 -73.84,-172.04 122.12 08/08/2017 11:04:41 -73.82,-172.04 122.14 2.47 6
11 08/08/2017 11:54:15 73.90, -4.54 57.97 08/08/2017 11:55:19 73.89, -4.54 57.94 1.80 64
12 08/11/2017 05:49:34 73.74, 86.97 58.59 08/11/2017 05:48:21 73.72, 86.81 58.59 5.61 73
13 08/11/2017 06:39:02 -73.83,-105.58 121.31 08/11/2017 06:39:01 -73.83,-105.60 121.31 0.67 1




NCC Satellite Simultaneous Nadir Overpasses (SNOs) Prediction Service
